Weather History for Summerville, SC

Change the Weather History Date:

Monday, February 25, 2013

  Actual Average (KCHS) Record (KCHS)
Temperature  
Mean Temperature 45 °F 54 °F  
Max Temperature 48 °F 65 °F 80 °F (1930)
Min Temperature 42 °F 43 °F 18 °F (1967)
Degree Days  
Heating Degree Days 20 12  
Month to date heating degree days 345  
Since 1 July heating degree days 1604  
Cooling Degree Days 0 0  
Month to date cooling degree days 0  
Year to date cooling degree days 2  
Moisture  
Dew Point 44 °F    
Average Humidity 94    
Maximum Humidity 100    
Minimum Humidity 76    
Precipitation  
Precipitation 0.00 in 0.11 in 1.73 in (1957)
Month to date precipitation 2.65  
Year to date precipitation 6.36  
Sea Level Pressure  
Sea Level Pressure 30.03 in    
Wind  
Wind Speed 2 mph (NE)    
Max Wind Speed 9 mph    
Max Gust Speed -    
Visibility 9 miles    
Events Rain    
T = Trace of Precipitation, MM = Missing Value Source: NWS Daily Summary

Daily Weather History Graph

Daily Weather History Graph

Search for Another Location

Airport:

Trip Planner

Search our weather history database for the weather conditions in past years. The results will help you decide how hot, cold, wet, or windy it might be!

Date:

Astronomy

Feb. 25, 2013 Rise Set
Actual Time 6:53 AM EST 6:15 PM EST
Civil Twilight 6:28 AM EST 6:40 PM EST
Nautical Twilight 5:59 AM EST 7:08 PM EST
Astronomical Twilight 5:31 AM EST 7:37 PM EST
Moon 6:23 PM EST (2/25) 6:24 AM EST (2/25)
Length of Visible Light 12h 11m
Length of Day
11h 21m
Full, 100% of the Moon is Illuminated
Feb 25
Full
Feb 25
Full
Mar 4
Last Quarter
Mar 11
New
Mar 19
First Quarter

Hourly Weather History & Observations

Time (EST) Temp. Windchill Dew Point Humidity Pressure Visibility Wind Dir Wind Speed Gust Speed Precip Events Conditions
12:15 AM 44.6 °F - 44.6 °F 100% 30.01 in 10.0 mi Calm Calm - N/A   Clear
12:35 AM 44.6 °F - 44.6 °F 100% 30.00 in 10.0 mi Calm Calm - N/A   Clear
12:55 AM 44.6 °F - 44.6 °F 100% 29.99 in 10.0 mi Calm Calm - N/A   Clear
1:15 AM 44.6 °F - 44.6 °F 100% 29.99 in 10.0 mi Calm Calm - N/A   Clear
1:35 AM 44.6 °F - 44.6 °F 100% 29.98 in 10.0 mi Calm Calm - N/A   Clear
1:55 AM 44.6 °F - 44.6 °F 100% 29.98 in 10.0 mi Calm Calm - N/A   Clear
2:15 AM 44.6 °F - 44.6 °F 100% 29.98 in 10.0 mi Calm Calm - N/A   Clear
2:35 AM 44.6 °F - 44.6 °F 100% 29.98 in 10.0 mi Calm Calm - N/A   Clear
2:55 AM 44.6 °F - 44.6 °F 100% 29.97 in 10.0 mi Calm Calm - N/A   Clear
3:15 AM 42.8 °F - 42.8 °F 100% 29.98 in 10.0 mi Calm Calm - N/A   Clear
3:35 AM 44.6 °F - 44.6 °F 100% 29.96 in 10.0 mi Calm Calm - N/A   Clear
3:55 AM 42.8 °F - 42.8 °F 100% 29.97 in 10.0 mi Calm Calm - N/A   Clear
4:15 AM 44.6 °F - 44.6 °F 100% 29.97 in 10.0 mi Calm Calm - N/A   Clear
4:35 AM 44.6 °F - 44.6 °F 100% 29.98 in 10.0 mi Calm Calm - N/A   Clear
4:55 AM 44.6 °F - 44.6 °F 100% 29.97 in 10.0 mi Calm Calm - N/A   Clear
5:15 AM 46.4 °F 45.2 °F 46.4 °F 100% 29.99 in 10.0 mi NNE 3.5 mph - N/A   Clear
5:35 AM 46.4 °F 45.2 °F 46.4 °F 100% 29.99 in 10.0 mi NNE 3.5 mph - N/A   Clear
5:55 AM 46.4 °F 45.2 °F 46.4 °F 100% 30.00 in 10.0 mi NNE 3.5 mph - N/A   Clear
6:35 AM 46.4 °F - 46.4 °F 100% 30.03 in 10.0 mi Calm Calm - N/A   Clear
6:55 AM 46.4 °F 44.3 °F 46.4 °F 100% 30.06 in 10.0 mi NNE 4.6 mph - N/A   Clear
7:15 AM 46.4 °F 45.2 °F 44.6 °F 93% 30.05 in 10.0 mi NNE 3.5 mph - N/A   Clear
7:35 AM 46.4 °F - 42.8 °F 87% 30.04 in 10.0 mi Calm Calm - N/A   Clear
7:55 AM 46.4 °F - 41.0 °F 81% 30.04 in 10.0 mi Calm Calm - N/A   Clear
8:15 AM 46.4 °F - 41.0 °F 81% 30.06 in 10.0 mi Calm Calm - N/A   Clear
8:35 AM 46.4 °F 45.2 °F 39.2 °F 76% 30.05 in 10.0 mi NE 3.5 mph - N/A   Clear
8:55 AM 46.4 °F 43.5 °F 39.2 °F 76% 30.08 in 10.0 mi NNE 5.8 mph - N/A   Clear
9:15 AM 46.4 °F 44.3 °F 39.2 °F 76% 30.09 in 10.0 mi NE 4.6 mph - N/A   Clear
9:35 AM 46.4 °F 43.5 °F 41.0 °F 81% 30.08 in 10.0 mi NE 5.8 mph - N/A   Clear
10:15 AM 48.2 °F - 41.0 °F 76% 30.08 in 10.0 mi NE 4.6 mph - N/A   Mostly Cloudy
10:35 AM 46.4 °F 45.2 °F 41.0 °F 81% 30.09 in 10.0 mi NE 3.5 mph - N/A   Overcast
10:55 AM 46.4 °F 44.3 °F 41.0 °F 81% 30.09 in 10.0 mi NE 4.6 mph - N/A   Overcast
11:35 AM 46.4 °F 42.9 °F 42.8 °F 87% 30.10 in 10.0 mi NE 6.9 mph - N/A   Overcast
11:55 AM 46.4 °F 45.2 °F 42.8 °F 87% 30.10 in 10.0 mi ENE 3.5 mph - N/A   Overcast
12:15 PM 46.4 °F 44.3 °F 42.8 °F 87% 30.10 in 10.0 mi NE 4.6 mph - N/A   Light Drizzle
12:35 PM 46.4 °F 42.9 °F 44.6 °F 93% 30.08 in 10.0 mi NE 6.9 mph - N/A Rain Rain
12:55 PM 46.4 °F 45.2 °F 44.6 °F 93% 30.07 in 10.0 mi NE 3.5 mph - N/A Rain Light Rain
1:15 PM 46.4 °F 43.5 °F 44.6 °F 93% 30.07 in 10.0 mi NNE 5.8 mph - N/A Rain Light Rain
1:55 PM 44.6 °F - 44.6 °F 100% 30.07 in 3.0 mi Calm Calm - N/A Rain Rain
2:15 PM 44.6 °F - 44.6 °F 100% 30.07 in 5.0 mi Calm Calm - N/A Rain Light Rain
2:35 PM 44.6 °F - 44.6 °F 100% 30.07 in 4.0 mi Calm Calm - N/A Rain Rain
2:55 PM 44.6 °F 40.7 °F 44.6 °F 100% 30.06 in 5.0 mi NE 6.9 mph - N/A Rain Light Rain
3:15 PM 44.6 °F 40.7 °F 44.6 °F 100% 30.04 in 5.0 mi NE 6.9 mph - N/A Rain Light Rain
5:15 PM 42.8 °F 37.5 °F 42.8 °F 100% 30.01 in 7.0 mi East 9.2 mph - N/A Rain Rain
5:55 PM 44.6 °F 40.2 °F 44.6 °F 100% 30.02 in 10.0 mi North 8.1 mph - N/A   Light Drizzle